Dunkirk, NY

12:09 PM EDT on July 26, 2017 (GMT -0400)
Chautauqua County-Dunkirk

Weather History for KDKK - May, 2013

Change the Weather History Date:

Tuesday, May 21, 2013

  Actual Average Record
Temperature  
Mean Temperature 75 °F -  
Max Temperature 87 °F 69 °F 87 °F (1934)
Min Temperature 64 °F 48 °F 30 °F (2002)
Cooling Degree Days 10    
Growing Degree Days 25 (Base 50)    
Moisture  
Dew Point 62 °F    
Average Humidity 65    
Maximum Humidity 81    
Minimum Humidity 44    
Precipitation  
Precipitation 0.00 in - - ()
Sea Level Pressure  
Sea Level Pressure 29.83 in    
Wind  
Wind Speed 9 mph (SW)    
Max Wind Speed 17 mph    
Max Gust Speed 25 mph    
Visibility 10 miles    
Events Thunderstorm    
Averages and records for this station are not official NWS values.
T = Trace of Precipitation, MM = Missing Value Source: NWS Daily Summary

Daily Weather History Graph

Daily Weather History Graph

Search for Another Location

Airport or City:

Trip Planner

Search our weather history database for the weather conditions in past years. The results will help you decide how hot, cold, wet, or windy it might be!

Date:

Astronomy

May. 21, 2013 Rise Set
Actual Time 5:49 AM EDT 8:38 PM EDT
Civil Twilight 5:16 AM EDT 9:11 PM EDT
Nautical Twilight 4:34 AM EDT 9:53 PM EDT
Astronomical Twilight 3:47 AM EDT 10:41 PM EDT
Moon 4:46 PM EDT (5/21) 3:21 AM EDT (5/21)
Length of Visible Light 15h 54m
Length of Day
14h 48m
Waxing Gibbous, 84% of the Moon is Illuminated
May 21
Waxing Gibbous
May 25
Full
May 31
Last Quarter
Jun 8
New
Jun 16
First Quarter

Hourly Weather History & Observations

Time (EDT) Temp. Heat Index Dew Point Humidity Pressure Visibility Wind Dir Wind Speed Gust Speed Precip Events Conditions
12:14 AM 66.2 °F - 57.2 °F 73% 29.95 in 10.0 mi NNE 11.5 mph 23.0 mph N/A   Mostly Cloudy
12:53 AM 66.0 °F - 57.0 °F 73% 29.92 in 10.0 mi East 9.2 mph - N/A   Partly Cloudy
1:53 AM 66.0 °F - 57.0 °F 73% 29.90 in 10.0 mi ESE 6.9 mph - N/A   Mostly Cloudy
2:53 AM 68.0 °F - 57.0 °F 68% 29.87 in 10.0 mi SSE 9.2 mph - N/A   Partly Cloudy
3:53 AM 64.0 °F - 57.9 °F 80% 29.87 in 10.0 mi Calm Calm - N/A   Clear
4:53 AM 69.1 °F - 63.0 °F 81% 29.86 in 10.0 mi SSW 8.1 mph - N/A   Clear
5:53 AM 71.1 °F - 64.9 °F 81% 29.88 in 9.0 mi SSW 9.2 mph - N/A   Scattered Clouds
6:53 AM 72.0 °F - 66.0 °F 81% 29.89 in 8.0 mi SSW 9.2 mph - N/A   Clear
7:53 AM 73.9 °F - 66.9 °F 79% 29.89 in 8.0 mi SSW 10.4 mph 18.4 mph N/A   Clear
8:53 AM 77.0 °F - 68.0 °F 74% 29.88 in 9.0 mi SSW 5.8 mph - N/A   Mostly Cloudy
9:53 AM 81.0 °F 83.8 °F 68.0 °F 65% 29.86 in 10.0 mi SW 8.1 mph - N/A   Scattered Clouds
10:53 AM 81.0 °F 83.8 °F 68.0 °F 65% 29.86 in 10.0 mi SW 4.6 mph - N/A   Scattered Clouds
11:53 AM 82.9 °F 85.0 °F 66.0 °F 56% 29.84 in 10.0 mi WSW 5.8 mph - N/A   Mostly Cloudy
12:53 PM 84.9 °F 85.9 °F 63.0 °F 48% 29.82 in 10.0 mi SSW 13.8 mph 25.3 mph N/A   Scattered Clouds
1:53 PM 86.0 °F 87.3 °F 64.0 °F 48% 29.79 in 10.0 mi SW 10.4 mph - N/A   Mostly Cloudy
2:53 PM 82.0 °F 83.8 °F 64.9 °F 56% 29.80 in 10.0 mi West 12.7 mph 25.3 mph N/A   Partly Cloudy
3:53 PM 80.1 °F 82.1 °F 66.0 °F 62% 29.80 in 10.0 mi WSW 10.4 mph 18.4 mph 0.00 in   Clear
4:53 PM 81.0 °F 81.1 °F 57.9 °F 45% 29.78 in 10.0 mi West 10.4 mph 18.4 mph N/A   Clear
5:53 PM 79.0 °F - 55.0 °F 44% 29.78 in 10.0 mi SW 6.9 mph 17.3 mph N/A   Partly Cloudy
6:53 PM 77.0 °F - 57.9 °F 52% 29.78 in 10.0 mi West 4.6 mph - N/A Thunderstorm Mostly Cloudy
7:08 PM 77.0 °F - 57.2 °F 50% 29.79 in 10.0 mi WSW 6.9 mph - N/A   Mostly Cloudy
7:18 PM 75.2 °F - 57.2 °F 53% 29.81 in 10.0 mi SSW 10.4 mph - N/A Thunderstorm Mostly Cloudy
7:53 PM 73.9 °F - 61.0 °F 64% 29.78 in 10.0 mi South 3.5 mph - N/A   Partly Cloudy
8:53 PM 71.1 °F - 64.0 °F 78% 29.78 in 10.0 mi SSW 4.6 mph - 0.00 in   Partly Cloudy
9:53 PM 70.0 °F - 62.1 °F 76% 29.79 in 10.0 mi SW 5.8 mph - N/A   Clear
10:53 PM 71.1 °F - 59.0 °F 66% 29.79 in 10.0 mi SSW 17.3 mph 24.2 mph N/A   Clear
11:53 PM 72.0 °F - 57.9 °F 61% 29.76 in 10.0 mi SSW 11.5 mph 21.9 mph N/A   Clear